When you browse on this site, cookies collect data to enhance your experience and personalize the content and advertising you see.
Visit our Privacy Policy to learn more. By continuing to use the site, you agree to this use of cookies and data.
  • In United Kingdom
  • List of Countries
  • For 7 days
  • Water Temperature
  • Weather Map
  • Weather Widgets
  • user-avatar
    Login

    Hourly Weather Aberdare

    Today, 17 September, Tuesday

    Time Temperature Precipitation Wind Pressure Humidity
    00:00 +10°C° 0 mm 2 mps 746 mmHg 88%
    01:00 +10°C° 0 mm 2 mps 746 mmHg 89%
    02:00 +9°C° 0 mm 2 mps 746 mmHg 89%
    03:00 +8°C° 0 mm 2 mps 745 mmHg 89%
    04:00 +8°C° 0 mm 2 mps 746 mmHg 89%
    05:00 +8°C° 0 mm 2 mps 746 mmHg 89%
    06:00 +8°C° 0 mm 1 mps 746 mmHg 90%
    07:00 +10°C° 0 mm 1 mps 747 mmHg 85%
    08:00 +10°C° 0 mm 2 mps 747 mmHg 81%
    09:00 +13°C° 0 mm 2 mps 747 mmHg 77%
    10:00 +14°C° 0 mm 2 mps 747 mmHg 74%
    11:00 +15°C° 0 mm 2 mps 748 mmHg 70%
    12:00 +16°C° 0 mm 3 mps 748 mmHg 67%
    13:00 +16°C° 0 mm 3 mps 748 mmHg 68%
    14:00 +16°C° 0 mm 3 mps 748 mmHg 68%
    15:00 +16°C° 0 mm 3 mps 748 mmHg 69%
    16:00 +14°C° 0 mm 3 mps 748 mmHg 74%
    17:00 +14°C° 0 mm 2 mps 748 mmHg 79%
    18:00 +13°C° 0 mm 2 mps 748 mmHg 84%
    19:00 +12°C° 0 mm 2 mps 748 mmHg 85%
    20:00 +10°C° 0 mm 3 mps 748 mmHg 87%
    21:00 +8°C° 0 mm 3 mps 749 mmHg 88%
    22:00 +8°C° 0 mm 3 mps 749 mmHg 88%
    23:00 +8°C° 0 mm 2 mps 749 mmHg 87%

    Tomorrow, 18 September, Wednesday

    Time Temperature Precipitation Wind Pressure Humidity
    00:00 +7°C° 0 mm 2 mps 749 mmHg 86%
    01:00 +7°C° 0 mm 2 mps 749 mmHg 88%
    02:00 +7°C° 0 mm 2 mps 749 mmHg 89%
    03:00 +7°C° 0 mm 2 mps 749 mmHg 90%
    04:00 +6°C° 0 mm 2 mps 749 mmHg 91%
    05:00 +7°C° 0 mm 1 mps 749 mmHg 91%
    06:00 +7°C° 0 mm 1 mps 749 mmHg 92%
    07:00 +9°C° 0 mm 1 mps 750 mmHg 87%
    08:00 +11°C° 0 mm 1 mps 750 mmHg 81%
    09:00 +13°C° 0 mm 1 mps 750 mmHg 76%
    10:00 +14°C° 0 mm 1 mps 750 mmHg 72%
    11:00 +15°C° 0 mm 1 mps 750 mmHg 68%
    12:00 +16°C° 0 mm 1 mps 750 mmHg 64%
    13:00 +18°C° 0 mm 1 mps 750 mmHg 63%
    14:00 +18°C° 0 mm 1 mps 750 mmHg 63%
    15:00 +18°C° 0 mm 1 mps 750 mmHg 63%
    16:00 +16°C° 0 mm 1 mps 750 mmHg 69%
    17:00 +15°C° 0 mm 1 mps 750 mmHg 76%
    18:00 +13°C° 0 mm 1 mps 749 mmHg 82%
    19:00 +13°C° 0 mm 1 mps 750 mmHg 84%
    20:00 +12°C° 0 mm 1 mps 750 mmHg 85%
    21:00 +11°C° 0 mm 1 mps 751 mmHg 87%
    22:00 +11°C° 0 mm 1 mps 750 mmHg 87%
    23:00 +10°C° 0 mm 1 mps 750 mmHg 88%

    Day after tomorrow, 19 September, Thursday

    Time Temperature Precipitation Wind Pressure Humidity
    00:00 +10°C° 0 mm 1 mps 750 mmHg 88%
    01:00 +10°C° 0 mm 1 mps 750 mmHg 88%
    02:00 +10°C° 0 mm 1 mps 750 mmHg 88%
    03:00 +9°C° 0 mm 1 mps 750 mmHg 87%
    04:00 +9°C° 0 mm 1 mps 750 mmHg 87%
    05:00 +9°C° 0 mm 1 mps 750 mmHg 86%
    06:00 +9°C° 0 mm 1 mps 750 mmHg 86%
    07:00 +11°C° 0 mm 1 mps 750 mmHg 80%
    08:00 +13°C° 0 mm 1 mps 751 mmHg 75%
    09:00 +15°C° 0 mm 1 mps 751 mmHg 70%
    10:00 +16°C° 0 mm 1 mps 751 mmHg 68%
    11:00 +18°C° 0 mm 1 mps 751 mmHg 65%
    12:00 +19°C° 0 mm 1 mps 751 mmHg 62%
    13:00 +19°C° 0 mm 1 mps 751 mmHg 63%
    14:00 +20°C° 0 mm 1 mps 751 mmHg 63%
    15:00 +20°C° 0 mm 1 mps 750 mmHg 63%
    16:00 +18°C° 0 mm 1 mps 750 mmHg 69%
    17:00 +16°C° 0 mm 1 mps 750 mmHg 75%
    18:00 +14°C° 0 mm 1 mps 749 mmHg 81%
    19:00 +14°C° 0 mm 1 mps 749 mmHg 83%
    20:00 +13°C° 0 mm 1 mps 749 mmHg 84%
    21:00 +12°C° 0 mm 1 mps 749 mmHg 86%
    22:00 +12°C° 0 mm 1 mps 749 mmHg 86%
    23:00 +12°C° 0 mm 1 mps 749 mmHg 87%

    20 September, Friday

    Time Temperature Precipitation Wind Pressure Humidity
    00:00 +11°C° 0 mm 1 mps 749 mmHg 88%
    01:00 +10°C° 0 mm 2 mps 749 mmHg 89%
    02:00 +10°C° 0 mm 2 mps 748 mmHg 90%
    03:00 +10°C° 0 mm 2 mps 748 mmHg 90%
    04:00 +9°C° 0 mm 2 mps 748 mmHg 91%
    05:00 +9°C° 0 mm 2 mps 747 mmHg 92%
    06:00 +9°C° 0 mm 2 mps 747 mmHg 93%
    07:00 +10°C° 0 mm 3 mps 747 mmHg 88%
    08:00 +12°C° 0 mm 4 mps 747 mmHg 84%
    09:00 +13°C° 0 mm 4 mps 747 mmHg 79%
    10:00 +14°C° 0 mm 5 mps 746 mmHg 75%
    11:00 +15°C° 0 mm 6 mps 746 mmHg 70%
    12:00 +16°C° 0 mm 6 mps 745 mmHg 65%
    13:00 +16°C° 0 mm 7 mps 744 mmHg 64%
    14:00 +17°C° 0 mm 7 mps 744 mmHg 63%
    15:00 +17°C° 0 mm 7 mps 743 mmHg 63%
    16:00 +16°C° 0 mm 7 mps 742 mmHg 64%
    17:00 +15°C° 0 mm 6 mps 742 mmHg 66%
    18:00 +13°C° 0 mm 6 mps 741 mmHg 67%
    19:00 +13°C° 0 mm 6 mps 741 mmHg 65%
    20:00 +11°C° 0 mm 6 mps 740 mmHg 63%
    21:00 +10°C° 0 mm 6 mps 740 mmHg 60%
    22:00 +10°C° 0 mm 5 mps 740 mmHg 63%
    23:00 +10°C° 0 mm 5 mps 739 mmHg 66%

    21 September, Saturday

    Time Temperature Precipitation Wind Pressure Humidity
    00:00 +9°C° 0 mm 5 mps 738 mmHg 68%
    01:00 +10°C° 0 mm 4 mps 738 mmHg 71%
    02:00 +10°C° 0 mm 4 mps 737 mmHg 74%
    03:00 +10°C° 0 mm 4 mps 737 mmHg 77%
    04:00 +8°C° 0 mm 4 mps 737 mmHg 78%
    05:00 +8°C° 0 mm 4 mps 736 mmHg 80%
    06:00 +8°C° 0 mm 4 mps 736 mmHg 81%
    07:00 +11°C° 0 mm 4 mps 735 mmHg 78%
    08:00 +12°C° 0 mm 4 mps 735 mmHg 76%
    09:00 +14°C° 0 mm 5 mps 735 mmHg 73%
    10:00 +15°C° 0 mm 6 mps 735 mmHg 73%
    11:00 +17°C° 0 mm 6 mps 734 mmHg 72%
    12:00 +18°C° 0 mm 7 mps 734 mmHg 71%
    13:00 +18°C° 0.3 mm 7 mps 733 mmHg 76%
    14:00 +18°C° 0.3 mm 7 mps 733 mmHg 80%
    15:00 +18°C° 0.3 mm 7 mps 732 mmHg 85%
    16:00 +17°C° 0.7 mm 6 mps 732 mmHg 88%
    17:00 +17°C° 0.7 mm 6 mps 732 mmHg 91%
    18:00 +16°C° 0.7 mm 5 mps 732 mmHg 94%
    19:00 +16°C° 0.3 mm 5 mps 731 mmHg 94%
    20:00 +17°C° 0.3 mm 4 mps 731 mmHg 95%
    21:00 +15°C° 0.3 mm 4 mps 731 mmHg 95%
    22:00 +15°C° 0.1 mm 4 mps 731 mmHg 95%
    23:00 +14°C° 0.1 mm 4 mps 731 mmHg 96%

    22 September, Sunday

    Time Temperature Precipitation Wind Pressure Humidity
    00:00 +14°C° 0.1 mm 5 mps 731 mmHg 96%
    01:00 +14°C° 0.2 mm 5 mps 731 mmHg 95%
    02:00 +14°C° 0.2 mm 5 mps 731 mmHg 95%
    03:00 +14°C° 0.2 mm 5 mps 732 mmHg 95%
    04:00 +13°C° 0 mm 5 mps 732 mmHg 95%
    05:00 +12°C° 0 mm 4 mps 732 mmHg 95%
    06:00 +12°C° 0 mm 3 mps 732 mmHg 95%
    07:00 +12°C° 0.2 mm 4 mps 732 mmHg 94%
    08:00 +13°C° 0.2 mm 5 mps 732 mmHg 92%
    09:00 +14°C° 0.2 mm 6 mps 733 mmHg 90%
    10:00 +14°C° 1.2 mm 6 mps 733 mmHg 90%
    11:00 +14°C° 1.2 mm 6 mps 733 mmHg 89%
    12:00 +14°C° 1.2 mm 6 mps 733 mmHg 89%
    13:00 +14°C° 0.3 mm 7 mps 733 mmHg 85%
    14:00 +14°C° 0.3 mm 7 mps 733 mmHg 80%
    15:00 +15°C° 0.3 mm 8 mps 733 mmHg 76%
    16:00 +13°C° 0.2 mm 8 mps 734 mmHg 80%
    17:00 +12°C° 0.2 mm 8 mps 734 mmHg 84%
    18:00 +11°C° 0.2 mm 7 mps 735 mmHg 88%
    19:00 +10°C° 0 mm 7 mps 736 mmHg 88%
    20:00 +10°C° 0 mm 7 mps 736 mmHg 88%
    21:00 +9°C° 0 mm 7 mps 737 mmHg 88%
    22:00 +9°C° 0 mm 6 mps 738 mmHg 88%
    23:00 +9°C° 0 mm 5 mps 739 mmHg 87%
    Show more